Temp
-22 -21 -22 -23 -23 -23 -23 -23 -24 -22 -23 -22 -21 -20 -19 -18 -18 -19 -19 -19 -18 -18 -18 -18 -19 -18 -18 -18 -18 -18 -18 -19 -19 -19 -20 -20 -20 -20 -20 -20 -20 -20 -21 -21
-23 -24 -24 -24 -24 -23 -24 -24 -24 -24 -24 -23 -23 -21 -20 -19 -19 -19 -19 -19 -19 -19 -19 -19 -19 -19 -19 -19 -19 -18 -18 -19 -19 -20 -20 -21 -20 -20 -20 -21 -21 -21 -21 -21
-25 -25 -25 -25 -23 -24 -24 -24 -24 -24 -24 -24 -23 -22 -22 -20 -19 -19 -20 -19 -20 -20 -19 -19 -19 -19 -19 -19 -19 -19 -19 -19 -19 -19 -20 -21 -21 -21 -21 -21 -22 -22 -22 -22
-25 -25 -25 -24 -24 -24 -25 -24 -24 -24 -24 -24 -23 -23 -22 -22 -22 -21 -20 -20 -20 -20 -20 -20 -19 -19 -19 -19 -20 -20 -19 -20 -20 -21 -21 -21 -21 -22 -22 -22 -22 -22 -22 -22
-26 -25 -25 -24 -24 -25 -25 -24 -24 -24 -24 -24 -23 -23 -23 -22 -22 -21 -21 -20 -20 -20 -20 -20 -19 -19 -19 -19 -21 -21 -21 -21 -21 -21 -21 -21 -22 -22 -22 -23 -22 -23 -23 -23
-25 -26 -25 -24 -24 -25 -25 -24 -25 -24 -24 -24 -24 -24 -23 -23 -23 -22 -22 -21 -20 -21 -20 -19 -19 -20 -20 -20 -20 -21 -21 -21 -22 -22 -22 -22 -22 -22 -23 -23 -24 -23 -24 -23
-25 -26 -25 -24 -24 -25 -25 -25 -24 -24 -24 -24 -24 -24 -24 -24 -23 -23 -23 -22 -21 -22 -22 -21 -21 -21 -22 -21 -21 -21 -22 -22 -22 -23 -22 -23 -23 -23 -23 -24 -24 -24 -24 -24
-26 -26 -25 -25 -25 -25 -25 -25 -25 -25 -25 -25 -25 -25 -24 -24 -24 -24 -24 -23 -23 -23 -23 -23 -22 -22 -22 -22 -22 -22 -23 -23 -23 -24 -24 -24 -24 -24 -24 -24 -24 -24 -24 -25
-26 -25 -25 -25 -26 -26 -25 -26 -25 -25 -26 -25 -25 -25 -25 -25 -24 -24 -24 -24 -24 -24 -24 -23 -23 -23 -23 -23 -23 -23 -23 -23 -24 -24 -24 -24 -24 -24 -25 -25 -25 -25 -25 -25
-26 -26 -25 -25 -26 -26 -26 -26 -26 -26 -26 -26 -25 -25 -25 -25 -25 -25 -25 -25 -25 -24 -24 -24 -24 -24 -24 -24 -23 -23 -24 -24 -25 -25 -25 -25 -25 -25 -25 -25 -25 -25 -25 -26
-26 -26 -26 -26 -26 -26 -26 -26 -26 -26 -26 -26 -26 -25 -25 -25 -25 -25 -25 -25 -25 -25 -25 -25 -25 -25 -25 -25 -25 -25 -25 -25 -25 -26 -26 -26 -26 -26 -26 -26 -26 -26 -26 -27
-26 -26 -26 -26 -26 -26 -26 -26 -26 -26 -26 -26 -26 -26 -26 -26 -25 -25 -25 -25 -25 -26 -26 -25 -25 -26 -26 -26 -26 -26 -26 -26 -26 -26 -26 -27 -27 -26 -26 -26 -26 -27 -27 -27
-26 -26 -26 -26 -26 -26 -26 -26 -26 -26 -26 -26 -26 -26 -26 -26 -26 -26 -26 -26 -26 -26 -26 -26 -26 -26 -26 -26 -26 -26 -26 -26 -26 -27 -27 -27 -27 -27 -27 -27 -27 -27 -27 -27
-26 -26 -26 -26 -26 -26 -26 -26 -26 -26 -26 -26 -26 -26 -26 -26 -26 -26 -26 -26 -26 -26 -26 -26 -26 -26 -27 -26 -26 -26 -26 -26 -27 -27 -27 -27 -27 -27 -27 -27 -27 -27 -27 -27
-26 -26 -26 -26 -27 -26 -26 -26 -26 -26 -26 -27 -27 -28 -28 -27 -28 -28 -27 -27 -26 -26 -26 -26 -26 -26 -26 -26 -26 -26 -27 -27 -27 -27 -27 -28 -28 -28 -28 -28 -28 -27 -27 -28
-26 -26 -26 -26 -27 -27 -26 -26 -27 -27 -28 -28 -28 -28 -28 -27 -27 -27 -27 -27 -27 -26 -27 -27 -27 -27 -27 -27 -27 -27 -27 -27 -27 -28 -28 -28 -28 -28 -28 -28 -28 -28 -28 -28
-26 -26 -27 -27 -27 -27 -27 -27 -27 -27 -27 -28 -28 -27 -27 -27 -27 -27 -27 -27 -27 -27 -27 -27 -27 -27 -27 -27 -27 -27 -27 -27 -28 -28 -28 -28 -28 -28 -28 -28 -28 -28 -28 -28
-26 -27 -27 -27 -27 -27 -27 -27 -27 -27 -27 -27 -27 -27 -27 -27 -27 -27 -27 -27 -27 -28 -27 -27 -27 -27 -28 -28 -28 -28 -28 -28 -28 -27 -27 -27 -27 -27 -28 -28 -28 -28 -28 -28
-27 -27 -28 -28 -28 -27 -27 -27 -27 -27 -27 -27 -27 -27 -28 -28 -28 -27 -27 -27 -27 -27 -27 -27 -27 -27 -28 -28 -28 -28 -28 -28 -27 -27 -27 -27 -28 -28 -28 -28 -28 -29 -29 -29
-28 -28 -28 -27 -27 -27 -27 -27 -27 -27 -28 -28 -28 -27 -27 -27 -27 -28 -28 -27 -27 -27 -27 -27 -27 -28 -28 -28 -28 -28 -28 -28 -28 -28 -28 -28 -28 -28 -28 -29 -29 -29 -29 -29
-27 -27 -27 -27 -27 -27 -27 -27 -27 -28 -28 -28 -28 -28 -28 -28 -28 -28 -28 -28 -28 -28 -27 -27 -27 -27 -27 -28 -29 -29 -28 -28 -28 -28 -28 -28 -29 -29 -29 -29 -29 -29 -29 -30
-27 -27 -27 -27 -27 -27 -27 -28 -28 -28 -28 -28 -28 -28 -28 -28 -28 -28 -28 -28 -28 -28 -28 -28 -28 -28 -28 -28 -28 -29 -29 -29 -29 -29 -29 -29 -29 -29 -29 -29 -29 -29 -30 -30
-27 -27 -27 -27 -27 -28 -28 -28 -28 -28 -28 -28 -28 -28 -28 -28 -28 -28 -28 -28 -28 -28 -28 -28 -28 -28 -28 -29 -28 -29 -30 -30 -30 -30 -30 -30 -30 -30 -30 -30 -30 -30 -30 -30
-27 -27 -27 -27 -28 -28 -28 -28 -28 -28 -28 -28 -28 -28 -28 -28 -28 -28 -28 -28 -28 -28 -28 -28 -29 -29 -29 -29 -29 -29 -31 -31 -30 -30 -30 -30 -30 -30 -30 -30 -30 -30 -31 -31
-27 -27 -28 -28 -28 -28 -28 -28 -28 -28 -28 -28 -28 -28 -28 -28 -28 -28 -28 -28 -28 -28 -28 -29 -29 -29 -29 -30 -30 -30 -30 -31 -31 -31 -31 -31 -31 -31 -31 -31 -31 -31 -31 -31
-28 -28 -28 -28 -28 -28 -28 -28 -28 -28 -28 -28 -28 -28 -28 -28 -28 -28 -28 -28 -29 -29 -29 -29 -29 -30 -30 -30 -31 -31 -31 -31 -31 -31 -31 -31 -31 -31 -31 -31 -31 -31 -31 -31
-27 -28 -28 -28 -28 -28 -28 -28 -28 -28 -28 -28 -28 -28 -28 -28 -28 -29 -29 -29 -29 -29 -29 -30 -30 -30 -31 -31 -31 -31 -31 -31 -31 -31 -31 -31 -31 -31 -31 -31 -31 -31 -32 -32
Height
5591 5596 5590 5591 5594 5599 5596 5596 5587 5591 5587 5593 5596 5592 5594 5593 5595 5597 5598 5599 5601 5604 5606 5609 5609 5610 5614 5617 5618 5618 5619 5619 5619 5620 5620 5618 5617 5616 5615 5614 5614 5613 5610 5609
5578 5582 5579 5576 5582 5587 5584 5581 5577 5578 5577 5577 5582 5578 5578 5580 5580 5580 5582 5584 5586 5589 5592 5594 5596 5598 5599 5601 5604 5605 5607 5607 5607 5607 5606 5605 5604 5604 5604 5603 5603 5602 5600 5596
5564 5569 5566 5563 5577 5573 5571 5571 5569 5567 5567 5568 5571 5566 5567 5563 5565 5566 5569 5569 5572 5575 5578 5582 5584 5588 5592 5594 5592 5591 5592 5594 5593 5594 5593 5592 5592 5592 5592 5592 5591 5591 5588 5585
5553 5556 5551 5561 5562 5562 5559 5563 5560 5559 5557 5557 5558 5556 5554 5552 5552 5552 5556 5557 5560 5563 5566 5571 5573 5574 5577 5582 5577 5576 5580 5579 5579 5580 5580 5580 5580 5580 5581 5581 5580 5578 5576 5572
5542 5543 5544 5550 5554 5553 5553 5556 5552 5551 5549 5546 5545 5545 5545 5545 5541 5543 5544 5547 5549 5552 5555 5558 5560 5562 5566 5571 5565 5568 5570 5567 5569 5570 5570 5571 5570 5570 5570 5570 5569 5568 5566 5564
5535 5532 5533 5543 5543 5545 5545 5545 5543 5542 5540 5539 5537 5536 5535 5535 5534 5533 5535 5537 5539 5542 5543 5544 5545 5548 5551 5554 5559 5562 5558 5559 5558 5560 5560 5560 5559 5559 5559 5557 5555 5556 5553 5553
5525 5523 5526 5533 5534 5536 5536 5541 5536 5536 5534 5533 5533 5532 5529 5527 5526 5526 5525 5526 5529 5531 5532 5537 5540 5543 5544 5545 5548 5552 5546 5546 5547 5547 5549 5549 5549 5549 5548 5546 5546 5544 5544 5544
5515 5516 5516 5522 5524 5526 5529 5528 5529 5529 5528 5527 5526 5526 5524 5522 5522 5520 5520 5520 5521 5522 5526 5529 5532 5534 5537 5539 5541 5539 5538 5537 5538 5539 5540 5539 5538 5537 5537 5536 5535 5534 5534 5532
5507 5510 5511 5512 5514 5516 5519 5521 5522 5522 5521 5521 5520 5521 5520 5519 5518 5517 5516 5515 5514 5515 5517 5519 5522 5524 5525 5528 5530 5531 5531 5528 5529 5528 5528 5529 5528 5528 5528 5526 5525 5525 5525 5524
5496 5503 5503 5505 5507 5508 5513 5516 5515 5516 5517 5516 5514 5514 5514 5513 5512 5511 5510 5509 5509 5509 5509 5509 5509 5512 5514 5517 5522 5520 5520 5520 5520 5520 5520 5519 5519 5519 5518 5518 5517 5515 5515 5515
5490 5493 5495 5497 5500 5503 5506 5508 5509 5510 5510 5507 5506 5506 5506 5505 5504 5504 5502 5502 5500 5501 5501 5501 5502 5503 5505 5506 5508 5510 5510 5510 5509 5510 5510 5510 5510 5510 5509 5508 5508 5507 5506 5506
5484 5487 5488 5490 5492 5496 5498 5500 5501 5500 5500 5498 5498 5497 5496 5495 5495 5494 5494 5494 5492 5491 5491 5491 5492 5493 5495 5497 5498 5499 5500 5501 5500 5501 5500 5500 5500 5500 5499 5499 5499 5498 5498 5498
5476 5480 5481 5484 5486 5489 5491 5492 5492 5492 5491 5489 5487 5486 5485 5485 5484 5483 5482 5482 5482 5481 5482 5482 5482 5484 5486 5488 5488 5489 5490 5491 5490 5490 5489 5489 5489 5490 5490 5490 5489 5490 5489 5489
5468 5471 5474 5477 5480 5482 5484 5484 5483 5482 5479 5477 5475 5473 5471 5470 5470 5469 5469 5470 5472 5472 5473 5474 5474 5475 5476 5478 5479 5479 5479 5479 5479 5479 5478 5478 5479 5481 5481 5480 5480 5481 5480 5480
5463 5466 5468 5472 5475 5476 5476 5475 5472 5468 5463 5459 5457 5457 5456 5455 5456 5457 5458 5460 5462 5462 5464 5465 5466 5467 5468 5469 5469 5469 5468 5468 5468 5468 5468 5468 5469 5470 5470 5471 5471 5471 5471 5471
5461 5462 5463 5465 5467 5467 5467 5463 5459 5455 5451 5447 5446 5446 5447 5448 5449 5449 5451 5453 5454 5454 5455 5456 5457 5457 5458 5458 5457 5457 5457 5457 5457 5458 5459 5459 5460 5460 5460 5461 5461 5461 5461 5462
5457 5457 5457 5457 5458 5457 5455 5454 5453 5450 5447 5445 5443 5442 5443 5443 5443 5445 5446 5445 5446 5446 5446 5447 5447 5448 5447 5447 5447 5446 5446 5447 5448 5449 5449 5450 5450 5450 5451 5451 5451 5451 5452 5452
5447 5446 5446 5447 5447 5448 5449 5448 5446 5445 5443 5441 5440 5439 5439 5439 5438 5438 5438 5438 5437 5437 5437 5438 5439 5439 5438 5438 5438 5438 5438 5439 5439 5440 5440 5440 5440 5441 5440 5441 5441 5442 5443 5443
5435 5433 5436 5440 5442 5440 5441 5443 5442 5441 5438 5437 5436 5435 5434 5434 5433 5432 5431 5431 5430 5430 5431 5430 5430 5430 5430 5430 5430 5430 5430 5430 5431 5431 5432 5431 5431 5431 5431 5431 5432 5433 5434 5434
5429 5430 5433 5436 5436 5435 5437 5437 5436 5434 5433 5432 5432 5431 5430 5429 5429 5428 5428 5427 5426 5425 5424 5423 5422 5421 5421 5421 5421 5421 5421 5421 5422 5422 5423 5422 5422 5423 5423 5423 5424 5424 5425 5425
5430 5430 5431 5432 5432 5432 5432 5431 5430 5430 5429 5429 5429 5429 5428 5428 5428 5427 5426 5425 5424 5422 5421 5419 5417 5415 5413 5411 5411 5412 5412 5413 5413 5414 5414 5414 5414 5415 5415 5415 5415 5415 5416 5416
5427 5428 5429 5429 5429 5428 5427 5427 5427 5427 5427 5427 5427 5427 5427 5427 5425 5424 5423 5422 5420 5418 5416 5414 5412 5410 5408 5405 5403 5403 5403 5404 5404 5405 5406 5406 5406 5406 5406 5406 5406 5406 5406 5405
5424 5424 5424 5424 5424 5424 5424 5424 5425 5425 5426 5426 5426 5426 5425 5424 5422 5421 5420 5418 5417 5415 5413 5411 5409 5406 5404 5401 5398 5396 5395 5396 5396 5397 5397 5398 5398 5398 5398 5397 5397 5397 5396 5395
5418 5419 5419 5419 5419 5420 5421 5421 5422 5422 5423 5423 5423 5422 5421 5420 5418 5417 5416 5414 5413 5411 5409 5407 5405 5402 5400 5397 5395 5393 5390 5390 5389 5389 5389 5389 5389 5389 5389 5389 5388 5388 5387 5386
5412 5412 5412 5413 5415 5416 5417 5418 5418 5419 5419 5419 5418 5418 5416 5415 5414 5413 5412 5410 5409 5407 5405 5403 5400 5398 5395 5393 5390 5388 5386 5385 5384 5384 5383 5382 5382 5381 5381 5380 5380 5379 5378 5377
5407 5408 5409 5410 5410 5411 5413 5414 5414 5415 5414 5414 5414 5413 5412 5411 5410 5409 5408 5407 5405 5403 5400 5397 5394 5391 5389 5386 5384 5382 5380 5379 5378 5377 5376 5376 5375 5375 5374 5373 5372 5371 5369 5367
5403 5404 5404 5405 5406 5407 5408 5410 5410 5410 5410 5410 5409 5409 5408 5408 5407 5406 5404 5402 5400 5397 5394 5391 5388 5385 5382 5379 5377 5376 5374 5373 5371 5370 5369 5368 5368 5367 5366 5365 5363 5361 5359 5357
Wind_Speed
50 51 53 54 53 49 52 55 51 54 54 53 49 46 58 64 62 58 58 59 57 57 55 52 41 43 41 38 45 54 57 45 49 47 48 33 27 30 34 39 44 44 43 44
48 47 48 50 47 44 50 48 47 46 50 48 40 43 55 54 59 55 51 55 51 52 55 51 48 37 40 46 41 44 50 51 51 43 32 27 29 32 36 42 43 43 42 45
49 46 47 51 43 46 44 40 42 45 45 45 46 39 43 43 51 56 51 50 49 46 42 44 38 34 43 44 47 57 54 56 50 48 41 32 29 34 41 42 42 43 42 41
47 45 49 41 39 41 40 33 33 35 34 33 37 35 39 45 39 37 38 36 33 33 34 38 47 45 46 45 45 45 50 51 40 32 35 37 35 37 40 43 42 41 40 37
47 46 43 38 35 36 34 28 33 29 24 24 24 27 32 29 41 37 37 40 42 39 42 40 53 41 44 44 34 34 30 34 34 38 35 39 36 34 38 42 43 34 35 37
43 41 44 29 33 32 35 28 27 25 23 23 23 18 19 17 17 30 40 30 36 25 43 49 57 46 44 47 32 24 35 36 35 33 34 41 43 46 42 34 30 32 32 34
36 37 42 36 33 35 36 23 25 20 13 9 15 20 19 17 17 16 19 29 32 23 18 24 30 28 24 20 21 29 38 37 40 35 40 41 44 40 37 32 30 30 30 32
23 25 38 25 30 33 21 24 23 18 12 10 12 16 16 14 15 22 22 19 22 22 19 23 23 28 33 35 34 26 34 37 37 39 38 36 34 32 29 29 29 30 30 29
37 25 28 24 20 18 22 22 20 16 13 12 9 11 12 13 14 18 19 22 27 25 25 28 28 29 31 31 32 35 31 39 40 37 32 29 26 27 29 29 29 29 29 28
33 20 25 29 24 20 25 23 20 19 18 19 18 22 23 22 21 24 25 27 26 23 24 27 27 29 29 29 23 32 33 34 28 26 28 29 29 29 29 30 30 28 28 27
25 18 24 23 20 24 25 27 27 26 27 27 25 26 28 29 30 28 25 29 29 28 26 25 25 24 23 24 26 27 25 31 35 35 33 32 32 31 33 32 30 28 27 28
21 19 22 20 23 23 24 27 29 30 35 34 35 34 33 34 36 33 35 38 33 31 29 29 28 28 30 30 31 31 32 33 35 36 34 34 33 32 33 32 31 29 27 28
19 21 26 25 23 23 28 31 34 38 41 43 45 45 42 40 40 40 44 40 34 30 27 27 28 29 31 31 28 26 29 32 35 34 32 32 31 33 34 32 31 28 28 28
26 28 21 18 21 25 28 32 37 41 43 47 50 52 52 52 51 46 36 32 31 30 30 28 27 28 27 26 29 31 33 32 31 33 33 31 31 35 33 32 30 30 29 29
19 20 18 19 21 25 31 36 41 48 54 59 57 49 40 36 30 26 27 28 27 28 29 28 28 28 31 32 33 32 30 30 31 33 31 29 30 32 33 32 31 31 30 30
12 14 18 23 25 30 35 40 41 32 24 23 19 21 23 20 23 21 20 22 22 21 22 26 28 29 30 31 30 29 28 26 27 27 27 28 30 32 30 31 32 32 32 32
19 23 28 30 31 30 26 21 21 22 22 20 20 19 17 18 17 19 19 18 20 21 22 23 24 25 26 25 25 24 23 24 24 25 25 28 30 32 33 33 34 34 32 33
26 28 29 29 24 18 17 21 20 20 21 20 18 17 17 18 17 16 17 17 18 19 21 22 24 24 21 21 22 23 24 25 25 27 28 29 30 31 33 33 33 33 31 31
25 31 31 24 21 14 16 20 20 21 20 19 18 15 14 14 15 17 19 20 21 21 21 23 23 24 24 23 24 24 25 26 28 26 26 27 28 29 28 28 28 28 29 29
7 5 10 13 12 12 17 21 24 18 13 12 10 9 7 7 6 5 4 4 5 7 9 13 20 25 27 28 28 28 26 25 25 25 26 27 26 26 25 26 25 24 25 27
11 10 10 12 13 15 19 22 16 11 9 7 5 6 6 6 7 8 8 7 9 10 11 12 14 15 16 24 30 29 28 28 27 27 27 27 26 26 25 25 25 25 26 28
10 14 14 15 16 19 17 12 9 9 7 7 7 6 5 6 8 9 10 10 12 14 16 16 16 17 17 18 19 29 29 27 27 28 27 27 26 26 27 27 28 28 27 27
13 15 17 18 19 15 12 11 10 10 10 9 8 8 8 9 11 12 13 14 16 15 15 16 17 18 18 19 19 18 25 25 24 24 25 25 25 27 28 28 27 27 28 30
19 22 21 19 16 14 13 13 11 13 12 12 11 11 13 14 14 14 15 14 13 14 15 17 18 19 20 20 20 19 17 19 19 22 23 24 25 25 26 26 26 27 28 28
21 18 15 14 14 15 15 13 12 13 14 14 15 15 16 15 13 11 11 12 14 15 17 19 20 21 21 21 20 19 18 17 21 21 20 20 20 21 21 22 24 25 27 29
14 13 12 14 15 14 14 13 12 12 13 13 14 14 13 10 10 11 13 15 16 19 21 23 23 23 23 23 21 19 18 19 18 19 22 23 23 23 24 26 28 31 32 34
14 15 14 13 13 14 15 15 14 12 12 13 12 11 10 11 12 14 16 18 20 22 24 25 26 26 26 25 23 20 17 18 19 19 19 20 21 23 24 26 27 28 29 30
Wind_Direction
264 266 265 267 268 267 267 266 278 271 276 278 269 257 255 254 257 258 256 256 258 260 261 260 260 262 261 261 258 255 262 259 267 274 271 282 295 303 296 293 286 283 290 296
266 267 269 270 266 273 269 271 276 285 282 277 282 276 270 261 251 256 260 262 263 268 265 264 258 267 270 264 268 252 256 270 269 267 272 291 295 293 289 280 280 286 290 297
264 265 269 266 269 266 276 284 290 293 294 282 283 298 285 263 260 254 261 266 266 264 254 264 267 268 260 259 267 258 258 262 270 266 280 291 286 278 271 270 279 287 291 296
268 267 268 267 264 269 282 293 293 291 289 286 287 293 300 294 288 269 262 261 263 266 252 260 255 242 256 271 246 245 257 262 270 270 265 276 274 273 272 268 281 289 291 293
268 268 270 261 265 270 275 288 287 286 278 279 284 289 291 299 303 285 266 259 259 266 265 259 242 234 243 238 244 252 261 263 260 254 254 259 262 264 265 276 287 288 293 294
265 264 265 265 262 264 276 283 278 273 272 279 273 259 275 271 276 297 279 247 241 253 237 233 230 233 226 224 243 265 259 260 252 249 263 265 267 271 278 288 285 282 285 289
267 267 269 266 260 269 275 286 271 272 282 295 289 279 275 261 242 236 264 294 261 260 256 241 235 242 230 221 243 234 253 248 263 273 270 276 278 284 289 285 276 279 282 286
254 273 276 266 263 263 272 257 267 279 278 288 311 310 301 309 308 287 269 249 251 258 250 252 240 247 234 242 237 245 260 270 271 272 275 277 278 280 277 272 272 276 278 278
243 256 254 273 254 253 260 253 262 256 246 246 286 297 303 320 315 312 313 302 282 259 242 236 239 239 240 245 252 259 257 260 275 273 274 273 276 276 272 270 270 273 274 273
246 240 240 254 251 251 249 235 238 242 252 270 282 288 291 300 315 321 311 299 287 275 261 252 252 253 253 254 242 246 264 269 259 267 273 269 269 268 271 269 267 268 271 266
249 262 251 241 247 250 248 242 252 260 270 284 293 294 290 299 300 305 307 312 282 267 264 260 253 252 253 252 254 254 251 249 266 270 269 268 268 270 268 269 266 267 268 260
256 254 256 241 243 246 250 257 264 273 280 287 290 291 294 295 293 290 293 294 286 269 264 261 256 253 254 256 258 259 261 260 264 266 267 267 269 270 269 268 270 267 265 260
244 243 243 250 247 254 261 267 275 279 283 287 290 289 288 285 284 285 287 288 273 268 264 260 258 256 257 259 257 257 264 268 266 264 266 267 266 266 270 269 269 262 265 262
239 236 240 243 254 264 271 277 280 282 285 284 280 278 279 282 280 275 269 262 262 261 258 259 257 254 248 250 261 267 270 268 264 264 263 261 260 262 265 266 263 264 264 260
238 234 245 256 270 275 276 278 282 283 281 280 281 284 283 280 272 262 259 255 259 261 257 253 254 256 258 261 265 269 271 272 266 259 258 260 260 263 264 266 263 267 265 261
257 292 281 270 268 272 280 281 283 287 295 301 296 281 275 273 271 261 254 256 259 261 261 258 259 263 267 269 271 274 272 266 265 262 260 264 265 265 263 266 269 268 265 263
270 269 271 267 271 281 284 279 284 292 296 293 298 283 275 278 277 267 263 268 269 265 262 263 265 270 272 272 273 268 260 258 260 259 260 265 265 266 268 267 267 266 264 264
277 267 259 259 271 264 282 285 284 285 291 292 288 281 276 273 270 270 268 274 285 274 266 266 268 271 266 272 266 264 261 257 258 264 268 269 268 267 267 268 267 264 265 267
275 255 243 256 243 258 271 277 281 289 286 284 282 278 278 281 283 285 285 282 281 278 275 273 272 270 263 265 265 265 265 264 266 263 271 274 272 268 267 265 263 263 265 267
296 256 227 232 257 264 269 284 295 298 289 278 278 288 298 310 313 315 328 338 333 325 310 296 282 274 268 263 266 264 264 261 263 269 272 272 270 266 262 260 261 264 267 270
269 242 252 268 271 283 291 294 292 278 272 273 274 285 289 295 293 297 298 308 319 324 324 325 320 326 321 277 265 265 267 263 261 266 268 270 267 265 264 263 263 263 265 267
250 261 270 275 278 287 292 279 264 263 250 256 275 272 281 290 296 299 310 316 318 318 316 319 323 322 327 328 306 268 269 270 268 265 264 265 264 264 264 263 262 263 265 269
263 272 277 278 282 286 272 252 261 246 249 258 258 271 289 296 299 302 306 308 312 313 315 319 321 323 325 327 328 307 274 272 271 268 268 269 271 270 270 269 268 268 271 274
269 276 275 272 271 263 256 249 256 247 251 256 268 282 292 296 299 299 301 305 309 313 317 319 320 320 319 317 316 321 290 277 274 274 270 269 269 270 271 273 274 277 280 280
270 268 263 261 256 256 250 244 252 256 259 265 274 284 292 296 297 298 302 306 310 314 316 316 315 313 312 310 307 303 303 292 277 274 276 276 274 271 272 276 278 279 279 282
257 254 251 258 256 247 236 239 255 261 265 272 282 288 290 291 293 299 303 308 311 315 316 315 313 309 305 303 303 301 294 290 288 281 277 280 281 282 282 282 283 284 286 287
257 252 259 250 246 238 234 243 257 264 278 283 282 282 288 293 298 303 307 311 315 318 317 315 311 307 302 298 295 294 294 292 290 288 286 285 284 283 284 284 286 287 288 288